| time (UTC) | temp F | wind direction | speed MPH | gust MPH | rain 1hr in | rain 24hr in | rain mn in | humidity % | barometer mb |
| 20260509131535 | 44 | 223 | 1.0 | 3.0 | 0.00 | 0.00 | 0.00 | 89 | 1023.0 |
| 20260509124532 | 44 | 176 | 2.0 | 3.0 | 0.00 | 0.00 | 0.00 | 88 | 1022.6 |
| 20260509123034 | 45 | 69 | 0.0 | 3.0 | 0.00 | 0.00 | 0.00 | 87 | 1022.5 |
| 20260509121536 | 46 | 67 | 0.0 | 1.0 | 0.00 | 0.00 | 0.00 | 86 | 1022.5 |
| 20260509120035 | 46 | 188 | 1.0 | 6.0 | 0.00 | 0.00 | 0.00 | 86 | 1022.5 |
| 20260509114533 | 47 | 199 | 4.0 | 8.0 | 0.00 | 0.00 | 0.00 | 84 | 1022.4 |
| 20260509113035 | 48 | 183 | 3.0 | 7.0 | 0.00 | 0.00 | 0.00 | 81 | 1022.5 |
| 20260509111537 | 49 | 189 | 2.0 | 6.0 | 0.00 | 0.00 | 0.00 | 78 | 1022.5 |
| 20260509110111 | 51 | 189 | 3.0 | 6.0 | 0.00 | 0.00 | 0.00 | 75 | 1022.6 |
| 20260509103035 | 56 | 273 | 4.0 | 10.0 | 0.00 | 0.00 | 0.00 | 69 | 1022.6 |
| 20260509101535 | 56 | 260 | 4.0 | 11.0 | 0.00 | 0.00 | 0.00 | 68 | 1022.7 |
| 20260509100036 | 56 | 268 | 6.0 | 14.0 | 0.00 | 0.00 | 0.00 | 68 | 1022.6 |
| 20260509094652 | 56 | 278 | 7.0 | 14.0 | 0.00 | 0.00 | 0.00 | 68 | 1022.6 |
| 20260509093035 | 57 | 279 | 6.0 | 13.0 | 0.00 | 0.00 | 0.00 | 68 | 1022.7 |
| 20260509091535 | 57 | 275 | 7.0 | 15.0 | 0.00 | 0.00 | 0.00 | 67 | 1022.8 |
| 20260509090108 | 57 | 280 | 7.0 | 15.0 | 0.00 | 0.00 | 0.00 | 66 | 1023.0 |
| 20260509084532 | 58 | 282 | 8.0 | 18.0 | 0.00 | 0.00 | 0.00 | 65 | 1023.1 |
| 20260509083035 | 58 | 286 | 7.0 | 13.0 | 0.00 | 0.00 | 0.00 | 64 | 1023.2 |
| 20260509081535 | 58 | 296 | 7.0 | 14.0 | 0.00 | 0.00 | 0.00 | 64 | 1023.4 |
| 20260509080030 | 57 | 255 | 7.0 | 16.0 | 0.00 | 0.00 | 0.00 | 65 | 1023.5 |
| 20260509074533 | 57 | 233 | 4.0 | 11.0 | 0.00 | 0.00 | 0.00 | 66 | 1023.5 |
| 20260509073036 | 57 | 256 | 3.0 | 9.0 | 0.00 | 0.00 | 0.00 | 65 | 1023.4 |
| 20260509071651 | 58 | 293 | 3.0 | 7.0 | 0.00 | 0.00 | 0.00 | 64 | 1023.4 |
| 20260509070033 | 58 | 286 | 3.0 | 8.0 | 0.00 | 0.00 | 0.00 | 63 | 1023.5 |
| 20260509064535 | 58 | 277 | 3.0 | 7.0 | 0.00 | 0.00 | 0.00 | 63 | 1023.7 |
| 20260509063034 | 58 | 267 | 4.0 | 10.0 | 0.00 | 0.00 | 0.00 | 64 | 1023.8 |
| 20260509061534 | 57 | 283 | 1.0 | 6.0 | 0.00 | 0.00 | 0.00 | 66 | 1023.7 |
| 20260509060036 | 56 | 245 | 2.0 | 9.0 | 0.00 | 0.00 | 0.00 | 66 | 1023.7 |
| 20260509054544 | 56 | 243 | 3.0 | 9.0 | 0.00 | 0.00 | 0.00 | 66 | 1023.7 |
| 20260509054535 | 56 | 229 | 3.0 | 7.0 | 0.00 | 0.00 | 0.00 | 66 | 1023.6 |
| 20260509051535 | 56 | 225 | 4.0 | 8.0 | 0.00 | 0.00 | 0.00 | 65 | 1023.5 |
| 20260509050033 | 57 | 213 | 3.0 | 6.0 | 0.00 | 0.00 | 0.00 | 62 | 1023.5 |
| 20260509043036 | 60 | 252 | 4.0 | 9.0 | 0.00 | 0.00 | 0.00 | 58 | 1023.1 |
| 20260509041533 | 60 | 274 | 5.0 | 10.0 | 0.00 | 0.00 | 0.00 | 58 | 1022.9 |
| 20260509040031 | 60 | 272 | 6.0 | 12.0 | 0.00 | 0.00 | 0.00 | 57 | 1022.7 |
| 20260509034608 | 60 | 279 | 5.0 | 10.0 | 0.00 | 0.00 | 0.00 | 56 | 1022.5 |
| 20260509033034 | 61 | 272 | 4.0 | 9.0 | 0.00 | 0.00 | 0.00 | 54 | 1022.4 |
| 20260509031536 | 62 | 280 | 4.0 | 9.0 | 0.00 | 0.00 | 0.00 | 53 | 1022.2 |
| 20260509030033 | 62 | 275 | 4.0 | 11.0 | 0.00 | 0.00 | 0.00 | 52 | 1022.0 |
| 20260509024544 | 63 | 283 | 4.0 | 8.0 | 0.00 | 0.00 | 0.00 | 51 | 1021.8 |
| 20260509024535 | 64 | 286 | 8.0 | 16.0 | 0.00 | 0.00 | 0.00 | 49 | 1021.8 |
| 20260509021533 | 64 | 297 | 6.0 | 13.0 | 0.00 | 0.00 | 0.00 | 48 | 1021.8 |
| 20260509013033 | 66 | 280 | 7.0 | 13.0 | 0.00 | 0.00 | 0.00 | 46 | 1021.7 |
| 20260509010035 | 66 | 281 | 7.0 | 17.0 | 0.00 | 0.00 | 0.00 | 44 | 1021.5 |
| 20260509004536 | 67 | 275 | 6.0 | 20.0 | 0.00 | 0.00 | 0.00 | 43 | 1021.5 |
| 20260509003035 | 67 | 269 | 8.0 | 18.0 | 0.00 | 0.00 | 0.00 | 42 | 1021.5 |
| 20260509001641 | 67 | 288 | 7.0 | 15.0 | 0.00 | 0.00 | 0.00 | 41 | 1021.3 |
| 20260509000150 | 67 | 300 | 9.0 | 19.0 | 0.00 | 0.00 | 0.00 | 39 | 1021.1 |
| 20260508234535 | 67 | 297 | 10.0 | 21.0 | 0.00 | 0.00 | 0.00 | 38 | 1020.9 |
| 20260508233036 | 66 | 294 | 12.0 | 25.0 | 0.00 | 0.00 | 0.00 | 37 | 1020.8 |
| 20260508230036 | 65 | 294 | 16.0 | 35.0 | 0.00 | 0.00 | 0.00 | 40 | 1020.7 |
| 20260508211535 | 64 | 289 | 13.0 | 28.0 | 0.00 | 0.00 | 0.00 | 47 | 1020.9 |
| 20260508210035 | 64 | 289 | 10.0 | 21.0 | 0.00 | 0.00 | 0.00 | 48 | 1020.9 |
| 20260508204611 | 63 | 288 | 13.0 | 26.0 | 0.00 | 0.00 | 0.00 | 48 | 1021.0 |
| 20260508201536 | 62 | 292 | 13.0 | 25.0 | 0.00 | 0.00 | 0.00 | 50 | 1020.9 |
| 20260508200110 | 61 | 288 | 17.0 | 30.0 | 0.00 | 0.00 | 0.00 | 51 | 1020.8 |
| 20260508194530 | 61 | 298 | 15.0 | 31.0 | 0.00 | 0.00 | 0.00 | 52 | 1020.7 |
| 20260508193037 | 61 | 295 | 15.0 | 28.0 | 0.00 | 0.00 | 0.00 | 52 | 1020.9 |
| 20260508191536 | 61 | 292 | 13.0 | 31.0 | 0.00 | 0.00 | 0.00 | 53 | 1021.0 |
| 20260508190035 | 59 | 285 | 13.0 | 25.0 | 0.00 | 0.00 | 0.00 | 54 | 1021.0 |
| 20260508184535 | 58 | 287 | 15.0 | 30.0 | 0.00 | 0.00 | 0.00 | 56 | 1020.9 |
| 20260508183036 | 56 | 299 | 10.0 | 25.0 | 0.00 | 0.00 | 0.00 | 58 | 1021.3 |
| 20260508181537 | 55 | 299 | 10.0 | 21.0 | 0.00 | 0.00 | 0.00 | 60 | 1021.2 |
| 20260508173035 | 54 | 288 | 10.0 | 16.0 | 0.00 | 0.00 | 0.00 | 59 | 1020.9 |
| 20260508171533 | 55 | 292 | 10.0 | 19.0 | 0.00 | 0.00 | 0.00 | 61 | 1020.7 |
| 20260508164532 | 55 | 290 | 10.0 | 21.0 | 0.00 | 0.00 | 0.00 | 62 | 1020.6 |
| 20260508163110 | 55 | 282 | 10.0 | 20.0 | 0.00 | 0.00 | 0.00 | 62 | 1020.6 |
| 20260508161530 | 55 | 280 | 12.0 | 21.0 | 0.00 | 0.00 | 0.00 | 62 | 1020.6 |
| 20260508154533 | 55 | 290 | 11.0 | 24.0 | 0.00 | 0.00 | 0.00 | 64 | 1020.6 |
| 20260508153036 | 55 | 291 | 12.0 | 25.0 | 0.00 | 0.00 | 0.00 | 65 | 1020.4 |
| 20260508151538 | 55 | 289 | 14.0 | 23.0 | 0.00 | 0.00 | 0.00 | 65 | 1020.2 |
| 20260508150032 | 55 | 298 | 12.0 | 24.0 | 0.00 | 0.00 | 0.00 | 62 | 1020.0 |
| 20260508144535 | 55 | 284 | 12.0 | 23.0 | 0.00 | 0.00 | 0.00 | 61 | 1019.7 |
| 20260508143036 | 55 | 284 | 11.0 | 26.0 | 0.00 | 0.00 | 0.00 | 59 | 1019.4 |
| 20260508141651 | 55 | 282 | 11.0 | 25.0 | 0.00 | 0.00 | 0.00 | 57 | 1019.2 |
| 20260508140111 | 55 | 278 | 11.0 | 22.0 | 0.00 | 0.00 | 0.00 | 57 | 1019.0 |
| 20260508134610 | 55 | 283 | 9.0 | 19.0 | 0.00 | 0.00 | 0.00 | 58 | 1019.0 |
| 20260508133035 | 55 | 279 | 9.0 | 20.0 | 0.00 | 0.00 | 0.00 | 60 | 1018.8 |